Terminal Aerodrome Forecast
Issued by NWS Boston, MA

Home | Current Version | Previous Version | Text Only | Print | Product List | Glossary On
Versions: 1 2 3 4 5 6 7 8 9 10 11 12 13 14 15 16 17 18 19 20 21 22 23 24 25 26 27 28 29 30 31
000
FTUS41 KBOX 250535
TAFORH
TAF
KORH 250535Z 2506/2606 36005KT P6SM SCT060 BKN250
     FM251100 32006KT P6SM SKC
     FM252200 25007KT P6SM FEW250=

USA.gov is the U.S. government's official web portal to all federal, state and local government web resources and services.